period_start,C,m1,H,J0,J1,J2,J3,J4,J5,JA,JB,JC,JD,JJ,JK,JN,#
2015-08-25 00:01:45,-0.00,0.57,0.00,24.97,29.03,31.85,14.45,49.82,1023.00,2031.66,3203.94,3080.97,3308.08,599.91,595.73,35.40,0000 0000 0000 0000 000000
2015-08-25 00:06:46,-0.00,0.57,0.00,25.00,29.05,31.85,14.61,50.04,1023.01,2031.61,3203.87,3080.66,3308.01,600.44,596.19,35.45,0000 0000 0000 0000 000000
2015-08-25 00:11:48,-0.00,0.57,0.00,25.00,29.05,31.86,14.48,49.89,1023.01,2031.24,3203.35,3080.05,3307.97,600.00,595.63,35.50,0000 0000 0000 0000 000000
2015-08-25 00:16:49,0.00,0.57,0.00,25.02,29.05,31.86,14.54,50.00,1023.00,2031.08,3202.99,3079.98,3307.28,599.71,595.35,35.55,0000 0000 0000 0000 000000
2015-08-25 00:21:50,0.01,0.57,0.00,25.03,29.05,31.85,14.53,50.02,1022.99,2031.10,3202.37,3079.85,3307.00,600.12,595.75,35.60,0000 0000 0000 0000 000000
2015-08-25 00:26:52,0.02,0.57,0.00,25.05,29.07,31.87,14.55,50.09,1022.97,2031.05,3202.02,3079.19,3306.83,600.10,595.74,35.65,0000 0000 0000 0000 000000
2015-08-25 00:31:53,0.01,0.57,0.00,25.06,29.07,31.86,14.50,49.90,1022.97,2031.03,3201.94,3079.01,3306.20,599.91,595.63,35.70,0000 0000 0000 0000 000000
2015-08-25 00:36:54,0.00,0.57,0.00,25.08,29.07,31.87,14.55,49.92,1022.97,2031.00,3201.70,3078.93,3306.00,600.23,595.66,35.75,0000 0000 0000 0000 000000
2015-08-25 00:41:56,0.04,0.57,0.00,25.10,29.09,31.87,14.55,50.22,1022.96,2031.00,3201.19,3078.22,3305.51,600.55,596.09,35.81,0000 0000 0000 0000 000000
2015-08-25 00:46:57,0.01,0.57,0.00,25.11,29.10,31.87,14.46,49.99,1022.96,2031.00,3200.41,3078.00,3305.01,599.97,595.57,35.86,0000 0000 0000 0000 000000
2015-08-25 00:51:58,0.00,0.57,0.00,25.10,29.10,31.87,14.48,49.91,1022.96,2031.00,3200.06,3077.91,3304.99,599.66,595.48,35.91,0000 0000 0000 0000 000000
2015-08-25 00:56:59,0.04,0.58,0.00,25.12,29.10,31.87,14.49,49.90,1022.96,2030.99,3199.83,3077.15,3304.23,600.00,595.56,35.96,0000 0000 0000 0000 000000
2015-08-25 01:02:00,-0.00,0.58,0.00,25.12,29.12,31.88,14.50,49.90,1022.96,2030.98,3199.57,3076.98,3303.99,599.98,595.47,36.01,0000 0000 0000 0000 000000
2015-08-25 01:07:02,0.03,0.58,0.00,25.15,29.12,31.89,14.50,49.93,1022.96,2030.98,3199.06,3076.46,3303.66,599.71,595.16,36.06,0000 0000 0000 0000 000000
2015-08-25 01:12:03,0.01,0.58,0.00,25.16,29.12,31.88,14.48,50.02,1022.96,2030.98,3198.92,3076.02,3303.04,599.94,595.45,36.11,0000 0000 0000 0000 000000
2015-08-25 01:17:04,0.01,0.58,0.00,25.19,29.14,31.89,14.56,49.92,1022.96,2030.97,3198.30,3075.98,3302.89,600.14,595.50,36.16,0000 0000 0000 0000 000000
2015-08-25 01:22:06,0.03,0.58,0.00,25.20,29.15,31.88,14.59,50.18,1022.96,2030.94,3198.07,3075.30,3302.27,600.11,595.55,36.21,0000 0000 0000 0000 000000
2015-08-25 01:27:07,-0.01,0.58,0.00,25.23,29.15,31.89,14.61,50.10,1022.96,2030.74,3197.88,3074.96,3301.94,600.24,595.58,36.26,0000 0000 0000 0000 000000
2015-08-25 01:32:08,0.02,0.58,0.00,25.26,29.16,31.88,14.47,50.17,1022.96,2030.34,3197.20,3074.12,3301.15,599.66,595.13,36.31,0000 0000 0000 0000 000000
2015-08-25 01:37:09,0.01,0.58,0.00,25.28,29.17,31.89,14.58,50.27,1022.96,2030.19,3196.23,3073.92,3300.64,599.86,595.11,36.36,0000 0000 0000 0000 000000
2015-08-25 01:42:11,0.02,0.58,0.00,25.31,29.17,31.89,14.51,49.90,1022.96,2030.08,3195.96,3073.16,3300.02,600.37,595.57,36.41,0000 0000 0000 0000 000000
2015-08-25 01:47:12,-0.00,0.58,0.00,25.32,29.19,31.89,14.47,49.79,1022.96,2030.01,3196.01,3072.96,3299.99,599.65,594.60,36.46,0000 0000 0000 0000 000000
2015-08-25 01:52:13,0.05,0.58,0.00,25.36,29.20,31.91,14.54,50.12,1022.93,2030.00,3195.59,3072.23,3299.34,599.99,595.04,36.51,0000 0000 0000 0000 000000
2015-08-25 01:57:14,-0.00,0.59,0.00,25.39,29.20,31.90,14.46,49.83,1022.94,2030.00,3195.27,3071.99,3299.00,600.17,595.05,36.56,0000 0000 0000 0000 000000
2015-08-25 02:02:16,0.06,0.59,0.00,25.41,29.22,31.91,14.59,50.22,1022.89,2029.99,3194.48,3071.22,3298.21,600.55,595.43,36.61,0000 0000 0000 0000 000000
2015-08-25 02:07:17,0.00,0.59,0.00,25.43,29.22,31.91,14.48,50.22,1022.92,2029.99,3194.00,3071.00,3297.97,600.04,594.87,36.66,0000 0000 0000 0000 000000
2015-08-25 02:12:18,0.04,0.59,0.00,25.46,29.25,31.92,14.45,50.05,1022.89,2029.97,3193.41,3070.60,3297.27,599.89,594.68,36.71,0000 0000 0000 0000 000000
2015-08-25 02:17:19,0.01,0.59,0.00,25.49,29.25,31.95,14.47,50.09,1022.91,2029.94,3192.84,3070.01,3296.71,599.82,594.58,36.77,0000 0000 0000 0000 000000
2015-08-25 02:22:20,0.02,0.59,0.00,25.52,29.27,31.92,14.50,50.00,1022.73,2029.87,3192.26,3069.68,3296.04,600.08,594.68,36.82,0000 0000 0000 0000 000000
2015-08-25 02:27:22,-0.01,0.59,0.00,25.55,29.28,31.94,14.43,50.13,1022.53,2029.45,3191.65,3069.01,3295.72,599.71,594.16,36.87,0000 0000 0000 0000 000000
2015-08-25 02:32:23,0.03,0.59,0.00,25.58,29.30,31.96,14.42,50.29,1022.50,2029.26,3190.78,3068.39,3295.00,599.65,594.01,36.92,0000 0000 0000 0000 000000
2015-08-25 02:37:25,0.01,0.60,0.00,25.61,29.31,31.95,14.50,50.30,1022.49,2029.12,3190.05,3068.00,3294.19,600.22,594.41,36.97,0000 0000 0000 0000 000000
2015-08-25 02:42:26,0.03,0.60,0.00,25.64,29.32,31.96,14.51,50.16,1022.49,2029.03,3189.51,3067.48,3293.89,600.37,594.55,37.02,0000 0000 0000 0000 000000
2015-08-25 02:47:27,0.02,0.60,0.00,25.66,29.35,31.98,14.43,50.15,1022.48,2029.01,3188.97,3067.00,3293.15,600.08,594.20,37.07,0000 0000 0000 0000 000000
2015-08-25 02:52:29,0.04,0.60,0.00,25.69,29.36,31.99,14.47,50.33,1022.49,2029.00,3188.09,3066.31,3292.41,600.31,594.38,37.12,0000 0000 0000 0000 000000
2015-08-25 02:57:29,0.01,0.60,0.00,25.72,29.37,31.97,14.46,50.23,1022.48,2029.00,3187.60,3065.97,3291.99,599.48,593.63,37.17,0000 0000 0000 0000 000000
2015-08-25 03:02:31,0.05,0.60,0.00,25.74,29.40,31.99,14.48,50.08,1022.48,2028.99,3186.61,3065.29,3291.25,600.27,594.30,37.22,0000 0000 0000 0000 000000
2015-08-25 03:07:32,0.02,0.61,0.00,25.77,29.41,31.99,14.42,50.06,1022.48,2028.99,3185.83,3064.96,3290.69,599.84,593.80,37.27,0000 0000 0000 0000 000000
2015-08-25 03:12:33,0.04,0.61,0.00,25.80,29.42,32.03,14.50,50.07,1022.48,2028.99,3185.35,3064.18,3290.02,599.97,593.83,37.32,0000 0000 0000 0000 000000
2015-08-25 03:17:34,0.02,0.61,0.00,25.83,29.45,32.03,14.35,49.98,1022.47,2028.97,3184.71,3063.86,3289.41,600.02,593.95,37.37,0000 0000 0000 0000 000000
2015-08-25 03:22:36,0.03,0.61,0.00,25.86,29.46,32.04,14.42,49.97,1022.41,2028.94,3184.04,3063.11,3288.96,600.15,593.86,37.42,0000 0000 0000 0000 000000
2015-08-25 03:27:37,0.02,0.61,0.00,25.88,29.47,32.05,14.42,50.10,1022.35,2028.77,3183.44,3062.75,3288.18,600.13,593.70,37.47,0000 0000 0000 0000 000000
2015-08-25 03:32:38,0.01,0.61,0.00,25.90,29.50,32.05,14.48,50.10,1022.33,2028.55,3182.87,3062.05,3287.88,600.59,594.22,37.52,0000 0000 0000 0000 000000
2015-08-25 03:37:39,0.00,0.61,0.00,25.92,29.51,32.08,14.49,50.25,1022.38,2028.39,3182.15,3061.80,3287.08,600.09,593.83,37.57,0000 0000 0000 0000 000000
2015-08-25 03:42:41,0.01,0.61,0.00,25.94,29.53,32.09,14.38,49.92,1022.38,2028.08,3181.78,3061.06,3286.61,599.61,593.13,37.62,0000 0000 0000 0000 000000
2015-08-25 03:47:42,0.02,0.61,0.00,25.96,29.55,32.08,14.43,50.31,1022.41,2028.02,3181.04,3060.62,3286.01,599.98,593.51,37.67,0000 0000 0000 0000 000000
2015-08-25 03:52:43,0.04,0.62,0.00,26.01,29.57,32.09,14.44,50.31,1022.43,2028.01,3180.21,3060.02,3285.30,599.91,593.35,37.73,0000 0000 0000 0000 000000
2015-08-25 03:57:45,0.02,0.62,0.00,26.05,29.59,32.11,14.41,50.18,1022.47,2028.00,3179.93,3059.66,3284.98,600.06,593.35,37.78,0000 0000 0000 0000 000000
2015-08-25 04:02:46,0.03,0.62,0.00,26.09,29.61,32.10,14.55,50.41,1022.47,2028.00,3179.26,3059.02,3284.30,600.49,593.76,37.83,0000 0000 0000 0000 000000
2015-08-25 04:07:48,0.03,0.62,0.00,26.13,29.63,32.09,14.43,50.08,1022.48,2028.00,3178.69,3058.41,3283.86,599.90,593.21,37.88,0000 0000 0000 0000 000000
2015-08-25 04:12:49,0.03,0.62,0.00,26.18,29.65,32.10,14.42,50.09,1022.47,2027.98,3177.97,3057.98,3283.07,599.90,592.94,37.93,0000 0000 0000 0000 000000
2015-08-25 04:17:50,0.06,0.62,0.00,26.22,29.68,32.11,14.45,49.92,1022.39,2027.99,3176.84,3057.43,3282.43,599.87,592.84,37.98,0000 0000 0000 0000 000000
2015-08-25 04:22:52,-0.01,0.63,0.00,26.26,29.70,32.13,14.48,50.02,1022.25,2027.86,3176.78,3056.97,3281.97,600.13,592.97,38.03,0000 0000 0000 0000 000000
2015-08-25 04:27:53,0.06,0.63,0.00,26.30,29.73,32.15,14.46,50.24,1022.14,2027.80,3175.83,3056.25,3281.29,600.04,592.70,38.08,0000 0000 0000 0000 000000
2015-08-25 04:32:54,0.04,0.63,0.00,26.34,29.76,32.16,14.48,50.38,1022.03,2027.76,3174.63,3055.99,3280.48,600.27,592.76,38.13,0000 0000 0000 0000 000000
2015-08-25 04:37:55,0.00,0.63,0.00,26.38,29.77,32.18,14.38,50.19,1022.00,2027.64,3173.99,3055.41,3279.95,600.29,592.67,38.18,0000 0000 0000 0000 000000
2015-08-25 04:42:56,0.05,0.63,0.00,26.42,29.81,32.22,14.36,49.99,1022.00,2027.42,3172.69,3054.99,3279.05,599.60,591.97,38.23,0000 0000 0000 0000 000000
2015-08-25 04:47:57,0.00,0.63,0.00,26.45,29.83,32.23,14.46,50.22,1022.00,2027.40,3172.35,3054.43,3278.45,600.15,592.47,38.28,0000 0000 0000 0000 000000
2015-08-25 04:52:58,0.02,0.63,0.00,26.49,29.86,32.27,14.46,49.99,1022.00,2027.09,3171.58,3054.00,3277.73,600.36,592.53,38.33,0000 0000 0000 0000 000000
2015-08-25 04:57:59,0.02,0.64,0.00,26.53,29.88,32.30,14.25,49.80,1021.99,2027.04,3171.01,3053.44,3277.05,599.54,591.73,38.38,0000 0000 0000 0000 000000
2015-08-25 05:03:01,0.03,0.64,0.00,26.58,29.91,32.33,14.42,49.98,1021.99,2027.01,3170.30,3053.01,3276.50,600.09,592.11,38.43,0000 0000 0000 0000 000000
2015-08-25 05:08:02,0.01,0.64,0.00,26.62,29.93,32.36,14.43,50.01,1021.98,2027.00,3169.81,3052.75,3276.01,600.00,591.97,38.48,0000 0000 0000 0000 000000
2015-08-25 05:13:03,0.04,0.64,0.00,26.65,29.96,32.38,14.36,49.83,1021.97,2027.00,3169.21,3052.05,3275.40,599.91,591.79,38.53,0000 0000 0000 0000 000000
2015-08-25 05:18:04,0.01,0.64,0.00,26.69,29.99,32.41,14.28,49.70,1021.95,2027.00,3168.77,3051.95,3274.93,599.54,591.32,38.58,0000 0000 0000 0000 000000
2015-08-25 05:23:06,0.03,0.64,0.00,26.73,30.01,32.45,14.40,49.90,1021.93,2027.00,3168.11,3051.29,3274.32,600.02,591.68,38.63,0000 0000 0000 0000 000000
2015-08-25 05:28:07,0.01,0.64,0.00,26.78,30.04,32.48,14.34,49.81,1021.79,2026.98,3167.72,3051.00,3273.99,599.85,591.43,38.68,0000 0000 0000 0000 000000
2015-08-25 05:33:09,0.03,0.64,0.00,26.81,30.07,32.50,14.33,49.62,1021.64,2026.96,3167.21,3050.78,3273.40,600.03,591.31,38.74,0000 0000 0000 0000 000000
2015-08-25 05:38:10,-0.01,0.65,0.00,26.84,30.10,32.54,14.35,49.81,1021.53,2026.73,3166.82,3050.04,3272.96,600.02,591.27,38.79,0000 0000 0000 0000 000000
2015-08-25 05:43:12,-0.01,0.64,0.00,26.88,30.12,32.58,14.29,49.65,1021.52,2026.16,3166.17,3049.79,3272.30,599.72,590.80,38.84,0000 0000 0000 0000 000000
2015-08-25 05:48:13,0.02,0.64,0.00,26.91,30.15,32.61,14.37,49.73,1021.50,2026.03,3165.61,3049.06,3271.83,600.01,591.08,38.89,0000 0000 0000 0000 000000
2015-08-25 05:53:14,0.01,0.65,0.00,26.94,30.18,32.63,14.43,50.12,1021.50,2026.00,3165.03,3048.89,3271.08,600.13,591.21,38.94,0000 0000 0000 0000 000000
2015-08-25 05:58:16,0.04,0.65,0.00,26.98,30.21,32.67,14.28,49.73,1021.50,2026.00,3164.72,3048.13,3270.76,599.56,590.63,38.99,0000 0000 0000 0000 000000
2015-08-25 06:03:17,0.01,0.65,0.00,27.01,30.24,32.71,14.41,49.56,1021.49,2025.99,3164.01,3047.97,3270.05,600.25,591.21,39.04,0000 0000 0000 0000 000000
2015-08-25 06:08:18,0.04,0.65,0.00,27.04,30.26,32.75,14.43,49.97,1021.50,2025.96,3163.60,3047.28,3269.66,600.17,590.93,39.09,0000 0000 0000 0000 000000
2015-08-25 06:13:19,-0.01,0.65,0.00,27.07,30.30,32.78,14.30,49.71,1021.50,2025.76,3162.96,3046.99,3269.02,600.10,590.95,39.14,0000 0000 0000 0000 000000
2015-08-25 06:18:20,0.01,0.65,0.00,27.10,30.33,32.80,14.30,49.69,1021.50,2025.46,3162.31,3046.57,3268.52,599.65,590.38,39.19,0000 0000 0000 0000 000000
2015-08-25 06:23:21,-0.00,0.65,0.00,27.13,30.36,32.82,14.36,49.80,1021.50,2025.17,3161.97,3046.01,3268.01,600.58,591.21,39.24,0000 0000 0000 0000 000000
2015-08-25 06:28:23,0.03,0.65,0.00,27.16,30.38,32.87,14.35,49.83,1021.50,2025.03,3161.30,3045.70,3267.40,600.03,590.60,39.29,0000 0000 0000 0000 000000
2015-08-25 06:33:24,0.01,0.65,0.00,27.19,30.41,32.90,14.28,49.80,1021.50,2025.00,3160.95,3045.04,3266.98,599.86,590.41,39.34,0000 0000 0000 0000 000000
2015-08-25 06:38:25,0.03,0.65,0.00,27.22,30.44,32.93,14.32,49.70,1021.50,2025.00,3160.43,3044.94,3266.39,600.25,590.68,39.39,0000 0000 0000 0000 000000
2015-08-25 06:43:27,0.02,0.66,0.00,27.25,30.47,32.94,14.28,49.48,1021.51,2024.99,3159.99,3044.25,3265.99,600.03,590.42,39.44,0000 0000 0000 0000 000000
2015-08-25 06:48:28,0.02,0.66,0.00,27.28,30.50,32.98,14.24,49.74,1021.51,2024.96,3159.54,3044.00,3265.43,599.65,589.86,39.49,0000 0000 0000 0000 000000
2015-08-25 06:53:29,0.02,0.66,0.00,27.30,30.53,33.01,14.26,49.56,1021.50,2024.91,3158.86,3043.69,3264.91,599.75,590.08,39.54,0000 0000 0000 0000 000000
2015-08-25 06:58:30,-0.01,0.66,0.00,27.33,30.56,33.04,14.44,49.73,1021.50,2024.47,3158.02,3043.03,3264.10,600.23,590.53,39.59,0000 0000 0000 0000 000000
2015-08-25 07:03:31,-0.01,0.66,0.00,27.36,30.59,33.06,14.30,49.69,1021.50,2024.08,3157.82,3042.70,3263.86,599.90,590.15,39.64,0000 0000 0000 0000 000000
2015-08-25 07:08:32,0.03,0.66,0.00,27.40,30.62,33.09,14.30,49.77,1021.50,2024.01,3157.08,3042.03,3263.08,600.07,590.20,39.70,0000 0000 0000 0000 000000
2015-08-25 07:13:34,0.01,0.66,0.00,27.43,30.65,33.12,14.28,49.60,1021.46,2024.00,3156.51,3041.95,3262.93,599.75,589.83,39.75,0000 0000 0000 0000 000000
2015-08-25 07:18:35,0.03,0.66,0.00,27.46,30.67,33.15,14.23,49.50,1021.41,2024.00,3156.01,3041.18,3262.14,599.70,589.66,39.80,0000 0000 0000 0000 000000
2015-08-25 07:23:37,0.02,0.66,0.00,27.50,30.71,33.17,14.35,49.75,1021.12,2024.00,3155.46,3041.00,3261.80,599.81,589.59,39.85,0000 0000 0000 0000 000000
2015-08-25 07:28:38,0.02,0.67,0.00,27.53,30.73,33.20,14.35,49.61,1021.05,2023.98,3155.00,3040.68,3261.07,600.28,589.76,39.90,0000 0000 0000 0000 000000
2015-08-25 07:33:39,0.02,0.67,0.00,27.56,30.76,33.24,14.31,49.54,1021.02,2023.91,3154.37,3040.04,3260.86,599.88,589.50,39.95,0000 0000 0000 0000 000000
2015-08-25 07:38:41,-0.02,0.67,0.00,27.59,30.79,33.26,14.26,49.55,1021.03,2023.63,3153.97,3039.98,3260.14,600.01,589.48,40.00,0000 0000 0000 0000 000000
2015-08-25 07:43:42,0.01,0.67,0.00,27.62,30.81,33.28,14.32,49.80,1021.03,2023.29,3153.46,3039.59,3259.91,599.82,589.24,40.05,0000 0000 0000 0000 000000
2015-08-25 07:48:43,0.01,0.67,0.00,27.65,30.84,33.31,14.36,49.55,1021.02,2023.11,3152.99,3039.03,3259.16,600.54,589.73,40.10,0000 0000 0000 0000 000000
2015-08-25 07:53:45,0.02,0.67,0.00,27.69,30.87,33.34,14.37,49.63,1021.01,2023.03,3152.33,3038.87,3258.77,600.21,589.39,40.15,0000 0000 0000 0000 000000
2015-08-25 07:58:46,0.02,0.67,0.00,27.72,30.90,33.35,14.38,49.66,1021.01,2023.00,3151.94,3038.26,3258.06,600.40,589.60,40.20,0000 0000 0000 0000 000000
2015-08-25 08:03:47,0.00,0.67,0.00,27.76,30.92,33.36,14.30,49.59,1021.01,2023.00,3151.66,3038.01,3257.99,600.20,589.30,40.25,0000 0000 0000 0000 000000
2015-08-25 08:08:49,0.02,0.67,0.00,27.81,30.96,33.39,14.36,49.68,1021.01,2023.00,3151.15,3037.94,3257.43,599.72,588.77,40.30,0000 0000 0000 0000 000000
2015-08-25 08:13:50,0.02,0.67,0.00,27.85,30.98,33.40,14.26,49.66,1021.01,2022.98,3150.99,3037.35,3257.01,600.06,588.97,40.35,0000 0000 0000 0000 000000
2015-08-25 08:18:51,-0.00,0.67,0.00,27.89,31.01,33.45,14.21,49.28,1021.01,2022.93,3150.81,3037.01,3256.80,599.86,588.75,40.40,0000 0000 0000 0000 000000
2015-08-25 08:23:52,0.01,0.67,0.00,27.92,31.04,33.49,14.29,49.44,1021.01,2022.84,3150.47,3036.99,3256.26,600.14,588.77,40.45,0000 0000 0000 0000 000000
2015-08-25 08:28:53,0.02,0.67,0.00,27.96,31.07,33.52,14.28,49.43,1021.02,2022.62,3149.95,3036.51,3255.98,599.96,588.71,40.50,0000 0000 0000 0000 000000
2015-08-25 08:33:55,-0.02,0.67,0.00,27.99,31.10,33.56,14.32,49.40,1021.01,2022.27,3149.41,3036.04,3255.43,600.18,588.88,40.55,0000 0000 0000 0000 000000
2015-08-25 08:38:56,0.00,0.67,0.00,28.01,31.13,33.59,14.24,49.08,1021.01,2022.04,3149.03,3035.98,3255.01,599.86,588.34,40.60,0000 0000 0000 0000 000000
2015-08-25 08:43:57,0.03,0.67,0.00,28.02,31.16,33.62,14.32,49.33,1021.01,2022.00,3148.89,3035.48,3254.61,600.29,588.87,40.66,0000 0000 0000 0000 000000
2015-08-25 08:48:58,0.02,0.67,0.00,28.04,31.18,33.66,14.26,49.30,1021.01,2022.00,3148.52,3035.02,3254.10,599.75,588.33,40.71,0000 0000 0000 0000 000000
2015-08-25 08:53:59,0.01,0.68,0.00,28.07,31.21,33.69,14.37,49.38,1021.01,2021.99,3147.99,3034.89,3253.89,600.06,588.70,40.76,0000 0000 0000 0000 000000
2015-08-25 08:59:00,0.03,0.68,0.00,28.07,31.24,33.71,14.36,49.42,1021.01,2021.95,3147.76,3034.36,3253.16,600.07,588.61,40.81,0000 0000 0000 0000 000000
2015-08-25 09:04:02,-0.01,0.68,0.00,28.09,31.26,33.75,14.26,49.32,1020.93,2021.61,3147.21,3034.01,3253.01,600.29,588.75,40.86,0000 0000 0000 0000 000000
2015-08-25 09:09:03,-0.02,0.68,0.00,28.11,31.29,33.77,14.19,49.16,1020.77,2021.20,3146.99,3033.92,3252.68,600.17,588.48,40.91,0000 0000 0000 0000 000000
2015-08-25 09:14:04,0.02,0.68,0.00,28.12,31.31,33.81,14.15,49.22,1020.91,2021.02,3146.60,3033.17,3252.03,599.56,588.00,40.96,0000 0000 0000 0000 000000
2015-08-25 09:19:05,0.03,0.68,0.00,28.14,31.34,33.84,14.34,49.42,1021.00,2021.00,3145.70,3032.90,3251.54,600.10,588.43,41.01,0000 0000 0000 0000 000000
2015-08-25 09:24:06,0.06,0.68,0.00,28.16,31.36,33.86,14.22,49.26,1021.01,2021.00,3144.27,3032.04,3250.37,600.03,588.43,41.06,0000 0000 0000 0000 000000
2015-08-25 09:29:08,0.04,0.68,0.00,28.17,31.37,33.88,14.31,49.39,1021.01,2020.99,3143.57,3031.41,3249.77,600.22,588.58,41.11,0000 0000 0000 0000 000000
2015-08-25 09:34:09,0.01,0.68,0.00,28.19,31.40,33.90,14.18,49.32,1020.81,2020.97,3142.93,3030.92,3249.04,600.05,588.16,41.16,0000 0000 0000 0000 000000
2015-08-25 09:39:10,0.03,0.69,0.00,28.21,31.42,33.92,14.26,49.02,1020.56,2020.91,3142.18,3030.23,3248.78,600.11,588.11,41.21,0000 0000 0000 0000 000000
2015-08-25 09:44:12,-0.01,0.69,0.00,28.22,31.44,33.93,14.34,49.23,1020.55,2020.63,3141.79,3029.99,3248.08,600.19,588.22,41.26,0000 0000 0000 0000 000000
2015-08-25 09:49:13,0.01,0.69,0.00,28.24,31.46,33.95,14.32,49.18,1020.54,2020.25,3141.02,3029.30,3247.70,599.89,587.92,41.31,0000 0000 0000 0000 000000
2015-08-25 09:54:15,0.02,0.69,0.00,28.26,31.49,33.94,14.30,49.16,1020.56,2020.08,3140.14,3028.93,3246.98,600.09,588.00,41.36,0000 0000 0000 0000 000000
2015-08-25 09:59:16,0.04,0.69,0.00,28.27,31.50,33.96,14.22,49.10,1020.57,2020.01,3139.09,3028.14,3246.13,599.87,587.80,41.41,0000 0000 0000 0000 000000
2015-08-25 10:04:17,0.00,0.69,0.00,28.30,31.52,33.98,14.23,49.03,1020.55,2020.00,3138.98,3028.00,3246.00,599.86,587.73,41.46,0000 0000 0000 0000 000000
2015-08-25 10:09:18,0.03,0.69,0.00,28.30,31.55,33.97,14.27,49.18,1020.54,2020.00,3138.43,3027.91,3245.57,599.72,587.39,41.51,0000 0000 0000 0000 000000
2015-08-25 10:14:19,0.02,0.69,0.00,28.31,31.56,33.99,14.27,49.38,1020.54,2020.00,3138.01,3027.27,3245.02,600.00,587.87,41.57,0000 0000 0000 0000 000000
2015-08-25 10:19:21,0.00,0.69,0.00,28.32,31.58,34.01,14.26,49.14,1020.52,2019.98,3137.90,3027.00,3244.90,599.95,587.74,41.62,0000 0000 0000 0000 000000
2015-08-25 10:24:22,0.02,0.69,0.00,28.32,31.60,34.02,14.20,49.03,1020.52,2019.96,3137.18,3026.94,3244.24,599.94,587.75,41.67,0000 0000 0000 0000 000000
2015-08-25 10:29:23,0.00,0.69,0.00,28.32,31.62,34.04,14.27,49.17,1020.52,2019.80,3136.93,3026.33,3243.93,600.10,587.65,41.72,0000 0000 0000 0000 000000
2015-08-25 10:34:25,0.02,0.70,0.00,28.33,31.64,34.07,14.26,49.18,1020.52,2019.52,3136.08,3025.33,3243.05,600.33,588.08,41.77,0000 0000 0000 0000 000000
2015-08-25 10:39:26,0.00,0.70,0.00,28.34,31.65,34.08,14.25,49.33,1020.52,2019.21,3135.87,3025.00,3242.48,600.13,587.90,41.82,0000 0000 0000 0000 000000
2015-08-25 10:44:27,0.01,0.70,0.00,28.35,31.67,34.11,14.35,49.23,1020.52,2019.07,3135.25,3025.00,3242.02,600.09,587.87,41.87,0000 0000 0000 0000 000000
2015-08-25 10:49:28,0.00,0.70,0.00,28.35,31.69,34.12,14.22,49.21,1020.49,2019.04,3135.03,3024.87,3242.00,599.87,587.81,41.92,0000 0000 0000 0000 000000
2015-08-25 10:54:30,0.02,0.70,0.00,28.37,31.70,34.15,14.32,49.40,1020.32,2019.00,3135.00,3024.18,3241.70,600.23,587.78,41.97,0000 0000 0000 0000 000000
2015-08-25 10:59:31,0.01,0.70,0.00,28.41,31.72,34.16,14.32,49.27,1020.09,2019.00,3134.90,3024.01,3241.08,600.00,587.46,42.02,0000 0000 0000 0000 000000
2015-08-25 11:04:32,0.01,0.70,0.00,28.48,31.72,34.18,14.08,48.93,1020.13,2019.00,3134.25,3024.00,3241.00,599.65,586.90,42.07,0000 0000 0000 0000 000000
2015-08-25 11:09:34,0.01,0.70,0.00,28.57,31.75,34.22,14.30,49.43,1020.05,2019.00,3134.00,3023.87,3240.85,600.39,587.36,42.12,0000 0000 0000 0000 000000
2015-08-25 11:14:35,0.03,0.70,0.00,28.61,31.75,34.24,14.27,49.23,1020.06,2018.99,3133.93,3023.31,3240.19,600.06,587.04,42.17,0000 0000 0000 0000 000000
2015-08-25 11:19:37,0.01,0.70,0.00,28.61,31.76,34.26,14.25,49.11,1020.04,2018.99,3133.25,3023.00,3240.00,599.99,586.94,42.22,0000 0000 0000 0000 000000
2015-08-25 11:24:38,0.00,0.70,0.00,28.53,31.77,34.31,14.18,49.08,1020.04,2018.95,3133.01,3022.98,3239.91,599.91,586.95,42.27,0000 0000 0000 0000 000000
2015-08-25 11:29:39,0.02,0.70,0.00,28.44,31.77,34.37,14.29,49.17,1020.04,2018.91,3132.89,3022.71,3239.22,600.09,587.31,42.32,0000 0000 0000 0000 000000
2015-08-25 11:34:40,0.02,0.70,0.00,28.36,31.77,34.44,14.35,49.26,1020.04,2018.86,3132.25,3022.18,3239.00,600.23,587.73,42.37,0000 0000 0000 0000 000000
2015-08-25 11:39:42,-0.00,0.70,0.00,28.29,31.77,34.49,14.26,49.19,1020.03,2018.82,3132.01,3022.03,3238.98,599.85,587.32,42.43,0000 0000 0000 0000 000000
2015-08-25 11:44:43,0.01,0.70,0.00,28.24,31.77,34.52,14.38,49.37,1019.99,2018.87,3131.99,3022.00,3238.83,599.83,587.46,42.48,0000 0000 0000 0000 000000
2015-08-25 11:49:44,0.01,0.71,0.00,28.19,31.77,34.54,14.21,49.27,1019.78,2018.79,3131.66,3022.00,3238.14,600.21,587.76,42.53,0000 0000 0000 0000 000000
2015-08-25 11:54:45,0.07,0.71,0.00,28.15,31.77,34.52,14.30,49.43,1019.57,2018.91,3130.42,3021.37,3237.82,599.66,587.22,42.58,0000 0000 0000 0000 000000
2015-08-25 11:59:46,0.01,0.71,0.00,28.11,31.77,34.53,14.29,49.24,1019.55,2018.90,3130.00,3021.02,3237.15,600.17,587.56,42.63,0000 0000 0000 0000 000000
2015-08-25 12:04:47,0.01,0.71,0.00,28.09,31.75,34.52,14.27,49.14,1019.55,2018.94,3129.85,3021.00,3237.01,599.81,587.63,42.68,0000 0000 0000 0000 000000
2015-08-25 12:09:48,0.00,0.71,0.00,28.06,31.75,34.52,14.21,49.13,1019.36,2018.95,3129.38,3021.00,3237.00,599.88,587.39,42.73,0000 0000 0000 0000 000000
2015-08-25 12:14:49,0.01,0.71,0.00,28.02,31.75,34.52,14.30,49.07,1019.24,2018.97,3129.02,3020.99,3236.95,599.91,587.40,42.78,0000 0000 0000 0000 000000
2015-08-25 12:19:51,0.01,0.71,0.00,28.00,31.73,34.51,14.19,48.96,1019.21,2018.99,3128.98,3020.99,3236.50,599.58,587.23,42.83,0000 0000 0000 0000 000000
2015-08-25 12:24:52,0.00,0.71,0.00,27.97,31.72,34.49,14.37,49.13,1019.08,2018.98,3128.83,3020.95,3236.07,600.26,587.77,42.88,0000 0000 0000 0000 000000
2015-08-25 12:29:53,0.02,0.71,0.00,27.95,31.71,34.47,14.28,49.03,1019.07,2018.99,3128.59,3020.69,3236.00,599.69,587.32,42.93,0000 0000 0000 0000 000000
2015-08-25 12:34:54,0.01,0.71,0.00,27.93,31.70,34.46,14.27,49.26,1019.06,2018.98,3128.18,3020.29,3236.00,600.41,588.08,42.98,0000 0000 0000 0000 000000
2015-08-25 12:39:56,0.01,0.71,0.00,27.90,31.69,34.46,14.33,49.32,1019.06,2018.99,3128.01,3020.15,3235.99,600.24,587.92,43.03,0000 0000 0000 0000 000000
2015-08-25 12:44:57,0.00,0.71,0.00,27.88,31.67,34.45,14.31,49.39,1019.06,2018.99,3127.99,3020.05,3235.89,600.10,587.80,43.08,0000 0000 0000 0000 000000
2015-08-25 12:49:59,0.00,0.71,0.00,27.85,31.66,34.42,14.29,49.20,1019.03,2018.99,3127.94,3020.02,3235.46,599.71,587.65,43.13,0000 0000 0000 0000 000000
2015-08-25 12:55:00,0.01,0.71,0.00,27.83,31.65,34.40,14.31,49.29,1018.86,2018.99,3127.65,3020.01,3235.09,599.85,587.70,43.18,0000 0000 0000 0000 000000